Home > Weather > Fort Worth > Past weeks

Flag for USA Weather for the Past 2 Weeks in Fort Worth, Texas, USA

Now
55 °F

Thundershowers. Mostly cloudy.


Feels Like: 52 °F
Forecast: 56 / 69 °F
Wind: 13 mph from Northwest

Location: Meacham International Airport

Current Time: May 2, 2016 at 5:54:58 AM

Latest Report: May 2, 2016 at 5:03 AM


Visibility: 9 mi

Pressure: 30.12 "Hg

Humidity: 87%

Dew Point: 51 °F

Location of Fort WorthLocation

Historic Weather in Fort Worth — Graph

°F

Fort Worth Temperature Yesterday

Maximum temperature yesterday: 74 °F (at 2:53 PM)
Minimum temperature yesterday: 57 °F (at 6:53 AM)
Average temperature yesterday: 65 °F

High & Low Weather Summary for the Past Weeks

 TemperatureHumidityPressure
High86 °F (Apr 25, 3:53 PM)97% (Apr 17, 6:53 AM)30.15 "Hg (Apr 17, 6:53 AM)
Low57 °F (Apr 22, 5:53 AM)30% (Apr 27, 4:53 PM)29.49 "Hg (Apr 29, 6:53 PM)
Average70 °F69%29.87 "Hg
* Reported Apr 17 3:53 AM — May 2 3:53 AM, Fort Worth, Weather by CustomWeather, © 2016

Note: Actual official high and low records may vary slightly from our data, if they occured in-between our weather recording intervals... More about our weather records

Advertising

Fort Worth Weather History for the Previous 24 Hours

Scroll right to see more
 ConditionsComfort  
Time TempWeatherWind HumidityBarometerVisibility
3:53 AM
Mon, May 2
58 °FThunderstorms. Mostly cloudy.20 mph78%30.07 "Hg10 mi
2:53 AM58 °FOvercast.16 mph78%30.04 "Hg10 mi
1:53 AM59 °FPassing clouds.12 mph72%30.06 "Hg10 mi
12:53 AM60 °FClear.18 mph69%30.06 "Hg10 mi
11:53 PM
Sun, May 1
62 °FClear.14 mph62%30.07 "Hg10 mi
10:53 PM65 °FPassing clouds.10 mph59%30.06 "Hg10 mi
9:53 PM66 °FPassing clouds.12 mph59%30.02 "Hg10 mi
8:53 PM67 °FSunny.12 mph55%30.00 "Hg10 mi
7:53 PM69 °FPassing clouds.12 mph51%29.97 "Hg10 mi
6:53 PM72 °FPartly sunny.10 mph44%29.95 "Hg10 mi
5:53 PM74 °FSunny.13 mph40%29.93 "Hg10 mi
4:53 PM74 °FSunny.14 mph41%29.93 "Hg10 mi
3:53 PM74 °FScattered clouds.15 mph38%29.96 "Hg10 mi
2:53 PM74 °FSunny.16 mph40%29.98 "Hg10 mi
1:53 PM71 °FSunny.10 mph41%30.01 "Hg10 mi
12:53 PM70 °FSunny.17 mph42%30.02 "Hg10 mi
11:53 AM68 °FSunny.12 mph47%30.03 "Hg10 mi
10:53 AM65 °FSunny.17 mph51%30.02 "Hg10 mi
9:53 AM63 °FSunny.17 mph52%30.00 "Hg10 mi
8:53 AM60 °FSunny.16 mph62%30.00 "Hg10 mi
7:53 AM58 °FSunny.14 mph70%29.97 "Hg10 mi
6:53 AM57 °FClear.14 mph74%29.93 "Hg10 mi
5:53 AM58 °FClear.15 mph75%29.91 "Hg10 mi
Weather by CustomWeather, © 2016

See weather overviewHow to use our weather pages